{"data":{"norad_id":52611,"intl_designator":"2022-052P","name":"STARLINK-3980","alt_names":[],"object_type":"PAYLOAD","status":"ACTIVE","operator":null,"country":"US","launch_date":"2022-05-14","launch_site_code":"AFETR","launch_vehicle":null,"mission":null,"orbit_class":"UNKNOWN","rcs_meters":null,"size_class":null,"mass_kg":null,"dimensions":null,"purposes":["comms"],"wikipedia_slug":null,"has_3d_model":false,"image_url":null,"decayed_at":null,"tle_current":{"epoch":"2026-09-20T02:58:27.660000Z","epoch_age_seconds":95799,"freshness":"FRESH","line1":"1 52611U 22052P   26263.12393125 -.00000211  00000+0  48765-5 0  9990","line2":"2 52611  53.1593 118.3083 0001437  79.1173 280.9992 15.35392509240311","mean_motion":15.35392509,"eccentricity":0.0001437,"inclination_deg":53.1593,"raan_deg":118.3083,"arg_perigee_deg":79.1173,"mean_anomaly_deg":280.9992,"bstar":4.8765e-6,"rev_number":24031,"period_min":93.787092978451,"perigee_km":458.77227843543,"apogee_km":460.73748856275,"semimajor_km":6837.8918834991,"source":"CELESTRAK","updated_at":"2026-09-20T09:00:40.070228Z"}}}